Concordia, KS

12:34 AM CDT on August 24, 2019 (GMT -0500)
Blosser Municipal

Weather History for KCNK - June, 2019

Change the Weather History Date:

Wednesday, June 12, 2019

  Actual Average Record
Temperature  
Mean Temperature 67 °F 72 °F  
Max Temperature 77 °F 84 °F 101 °F (1885)
Min Temperature 56 °F 61 °F 46 °F (1903)
Degree Days  
Heating Degree Days 0 0  
Month to date heating degree days 0 11  
Since 1 June heating degree days 0 11  
Since 1 July heating degree days 5821 5406  
Cooling Degree Days 2 8  
Month to date cooling degree days 103 76  
Year to date cooling degree days 203 165  
Since 1 June cooling degree days 103 76  
Growing Degree Days 16 (Base 50)    
Moisture  
Dew Point 48 °F    
Average Humidity 60    
Maximum Humidity 93    
Minimum Humidity 27    
Precipitation  
Precipitation 0.00 in 0.13 in 1.86 in (1944)
Month to date precipitation 0.84 1.60  
Year to date precipitation 15.43 11.59  
Snow  
Snow 0.00 in 0.00 in T in (1971)
Month to date snowfall 0.0 0.0  
Year to date snowfall 32.3 13.7  
Since 1 July snowfall 48.2 20.2  
Snow Depth 0.00 in    
Sea Level Pressure  
Sea Level Pressure 30.06 in    
Wind  
Wind Speed 11 mph (NNW)    
Max Wind Speed 23 mph    
Max Gust Speed 31 mph    
Visibility 10 miles    
Events      
T = Trace of Precipitation, MM = Missing Value Source: NWS Daily Summary

Daily Weather History Graph

Daily Weather History Graph

Search for Another Location

Airport or City:

Astronomy

Jun. 12, 2019 Rise Set
Actual Time 6:02 AM CDT 8:58 PM CDT
Civil Twilight 5:30 AM CDT 9:30 PM CDT
Nautical Twilight 4:49 AM CDT 10:11 PM CDT
Astronomical Twilight 4:02 AM CDT 10:59 PM CDT
Moon 4:08 PM CDT (6/12) 3:16 AM CDT (6/12)
Length of Visible Light 16h 00m
Length of Day
14h 55m
Waxing Gibbous, 77% of the Moon is Illuminated
Jun 12
Waxing Gibbous
Jun 17
Full
Jun 25
Last Quarter
Jul 2
New
Jul 9
First Quarter

Hourly Weather History & Observations

Time (CDT) Temp. Dew Point Humidity Pressure Visibility Wind Dir Wind Speed Gust Speed Precip Events Conditions
12:55 AM 61.0 °F 57.0 °F 87% 29.99 in 10.0 mi WSW 6.9 mph - 0.00 in   Scattered Clouds
1:55 AM 61.0 °F 55.9 °F 83% 30.01 in 10.0 mi WSW 5.8 mph - N/A   Clear
2:55 AM 60.1 °F 55.0 °F 83% 30.00 in 10.0 mi West 8.1 mph - N/A   Clear
4:55 AM 57.0 °F 53.1 °F 87% 30.02 in 10.0 mi WNW 8.1 mph - N/A   Clear
6:55 AM 57.9 °F 52.0 °F 81% 30.04 in 10.0 mi NW 10.4 mph - N/A   Clear
7:55 AM 60.1 °F 53.1 °F 78% 30.06 in 10.0 mi NNW 11.5 mph - N/A   Clear
8:55 AM 64.0 °F 55.0 °F 73% 30.07 in 10.0 mi NNW 10.4 mph - N/A   Clear
9:55 AM 66.9 °F 55.9 °F 68% 30.08 in 10.0 mi NNW 12.7 mph 18.4 mph N/A   Clear
10:55 AM 70.0 °F 53.1 °F 55% 30.08 in 10.0 mi North 16.1 mph 25.3 mph N/A   Clear
11:55 AM 72.0 °F 53.1 °F 51% 30.07 in 10.0 mi North 17.3 mph 23.0 mph N/A   Partly Cloudy
12:55 PM 73.9 °F 52.0 °F 46% 30.07 in 10.0 mi North 17.3 mph 28.8 mph N/A   Scattered Clouds
1:55 PM 73.9 °F 51.1 °F 45% 30.07 in 10.0 mi North 18.4 mph 28.8 mph N/A   Mostly Cloudy
2:55 PM 73.0 °F 48.9 °F 42% 30.06 in 10.0 mi NNW 17.3 mph 26.5 mph N/A   Mostly Cloudy
3:55 PM 75.0 °F 48.0 °F 38% 30.06 in 10.0 mi North 12.7 mph 25.3 mph N/A   Scattered Clouds
4:55 PM 77.0 °F 44.1 °F 31% 30.05 in 10.0 mi NNW 19.6 mph 29.9 mph N/A   Mostly Cloudy
5:55 PM 75.0 °F 39.0 °F 27% 30.06 in 10.0 mi North 15.0 mph 25.3 mph N/A   Clear
6:55 PM 73.9 °F 37.0 °F 26% 30.07 in 10.0 mi North 13.8 mph - N/A   Clear
7:55 PM 72.0 °F 37.0 °F 28% 30.08 in 10.0 mi North 9.2 mph - N/A   Clear
8:55 PM 66.9 °F 39.0 °F 36% 30.09 in 10.0 mi North 5.8 mph - N/A   Clear
9:55 PM 64.9 °F 39.0 °F 39% 30.09 in 10.0 mi Calm Calm - N/A   Clear
10:55 PM 63.0 °F 39.9 °F 43% 30.10 in 10.0 mi Calm Calm - N/A   Clear
11:55 PM 57.0 °F 42.1 °F 57% 30.10 in 10.0 mi WSW 5.8 mph - N/A   Clear